GFSSE_prec_cthk_018.txt.gz
RH
78 75 69 68 66 57 56 50 42 39 37 33 30 25 21 15 10 10 9 10 10 10 11 11 11 10 10 11 11 12 12 12 13 13 14 17 20 24 29 32 35 40 41
78 76 75 69 62 56 54 48 42 40 35 31 24 20 15 11 9 10 11 12 13 14 14 15 15 15 15 14 12 12 12 14 15 16 18 22 23 22 25 30 31 34 35
80 81 77 69 66 58 54 50 44 38 33 25 21 17 13 10 11 12 13 14 15 16 17 17 17 18 18 18 18 18 18 17 17 18 22 32 36 26 27 32 32 33 35
85 84 74 70 70 63 58 50 45 37 28 22 17 15 11 10 13 14 15 17 19 20 20 21 21 21 21 20 20 20 20 20 19 19 31 35 41 31 32 35 40 34 36
89 86 76 71 69 66 59 51 46 30 22 16 15 13 10 14 16 17 19 21 23 22 23 23 23 21 21 21 20 21 21 21 22 30 33 27 38 40 41 49 48 42 34
91 94 78 76 75 66 54 54 31 22 18 14 12 10 15 19 19 22 24 24 23 23 24 23 22 22 24 23 22 22 23 22 26 33 37 35 39 29 30 37 35 39 31
85 90 84 85 79 63 62 32 21 21 15 12 11 15 20 22 24 25 26 25 26 28 28 27 27 28 27 26 26 25 24 24 25 26 29 33 30 32 32 30 29 27 28
87 87 90 85 69 59 32 22 22 17 11 11 17 22 24 28 28 28 27 29 29 31 33 33 33 32 32 31 30 30 29 28 30 30 28 30 25 27 32 35 37 37 34
78 79 80 70 55 34 25 23 19 13 12 20 25 28 30 30 31 31 31 32 35 38 39 40 40 39 37 37 36 34 32 32 36 37 34 34 28 26 26 29 33 35 35
74 75 62 47 34 28 22 18 14 16 22 27 31 33 34 33 36 37 40 42 44 45 45 45 44 42 40 38 38 37 36 42 41 41 42 36 32 31 29 28 28 29 32
66 45 33 31 28 24 23 18 22 23 28 34 36 40 40 47 47 45 45 50 52 50 49 50 48 47 45 42 40 38 40 42 39 43 44 34 34 34 32 30 28 28 28
32 27 23 20 19 22 26 25 27 30 39 44 45 44 50 47 51 51 49 50 51 51 51 51 50 51 52 48 45 40 40 39 41 39 39 33 34 32 34 36 34 30 28
27 24 21 19 21 27 32 35 37 39 43 46 45 49 54 53 55 58 58 58 56 54 58 57 57 55 49 48 43 41 39 38 37 36 32 31 32 34 34 33 37 39 35
26 26 20 21 25 28 36 40 43 47 49 55 54 56 56 60 63 65 67 67 64 64 64 64 62 54 51 46 43 41 37 33 31 29 29 25 25 26 29 32 34 35 34
33 30 27 29 30 33 39 44 50 56 63 69 68 68 69 75 77 76 76 76 77 76 71 69 65 56 52 50 48 39 33 30 26 26 29 24 23 24 24 25 27 29 32
37 39 34 39 44 46 58 62 66 76 84 84 90 89 86 89 89 86 86 85 86 83 74 67 62 56 54 51 45 35 33 31 30 28 28 30 25 23 23 24 23 23 24
45 51 53 56 60 69 76 81 84 84 80 80 87 87 90 92 85 87 87 88 82 73 69 62 56 53 51 45 42 38 36 36 35 33 32 31 31 27 25 23 23 23 22
60 64 66 71 75 85 86 88 89 80 81 85 86 83 84 86 81 82 77 73 65 59 55 55 51 46 45 42 41 38 38 36 35 34 35 31 32 31 32 28 28 27 25
64 69 70 71 78 81 88 91 91 85 79 79 72 70 74 73 71 65 59 56 55 53 51 50 47 44 45 43 40 36 35 32 31 35 40 36 32 30 28 28 25 25 23
68 71 71 74 78 85 91 88 77 70 67 67 67 63 58 56 55 53 52 51 51 51 51 50 48 46 43 41 37 34 33 28 28 31 36 31 29 29 24 23 23 23 21
60 64 70 77 86 78 75 70 65 62 61 57 53 51 50 50 50 51 50 51 53 54 51 49 49 48 43 39 31 32 30 29 36 35 35 36 33 32 30 29 26 27 23
69 73 79 82 74 69 65 62 57 54 53 49 48 49 52 53 55 58 59 60 58 55 52 47 39 32 32 41 37 31 29 27 31 43 39 35 36 35 38 34 34 30 26
72 72 69 65 63 59 56 56 55 54 49 52 54 57 58 60 61 62 60 57 53 47 38 33 31 32 32 34 37 33 33 31 33 34 39 42 46 45 42 40 40 38 36
60 59 55 59 58 52 50 53 50 55 58 61 69 70 70 66 62 58 52 45 38 33 31 31 29 29 32 33 32 37 40 38 42 42 43 49 47 44 49 47 46 43 42
54 51 53 53 51 48 49 54 59 63 68 70 71 70 68 62 54 50 46 39 34 31 30 29 32 34 38 42 50 48 44 38 40 42 39 39 40 44 44 42 39 42 48
56 52 49 50 51 54 59 61 64 64 66 66 63 59 55 51 51 50 46 37 32 30 31 33 34 41 50 54 49 44 39 41 41 44 44 45 44 36 46 42 43 45 42

GFSSE_prec_cthk_021.txt.gz
RH
72 63 57 60 58 56 55 49 46 41 36 31 28 24 18 11 9 9 11 11 11 12 13 14 14 13 12 11 10 10 11 12 14 16 17 17 18 19 24 29 36 38 35
75 65 65 64 63 60 54 49 47 41 35 29 24 18 12 9 9 11 11 13 14 14 15 16 16 16 16 16 16 16 15 14 15 16 20 32 42 26 23 26 30 31 32
75 72 69 69 68 60 56 52 45 39 33 25 19 15 11 10 12 12 14 15 16 17 17 17 18 19 19 18 18 18 18 17 17 22 30 46 47 30 28 28 31 34 34
84 77 76 78 70 62 60 56 48 39 29 21 15 13 10 12 14 16 17 18 20 20 20 21 20 20 18 18 19 19 19 20 23 27 40 35 46 35 34 34 34 41 39
88 89 87 83 73 67 67 60 48 35 22 17 15 12 12 16 17 19 21 22 22 22 23 23 22 21 22 21 21 20 20 24 31 38 41 33 45 31 26 30 36 41 38
95 93 91 86 77 71 72 59 48 25 20 15 13 11 17 19 21 24 24 24 23 25 26 26 25 27 28 27 24 23 22 24 29 32 39 37 31 28 28 27 26 29 28
98 93 95 89 81 80 76 62 32 23 17 14 13 16 20 23 25 25 25 26 27 29 29 30 34 34 33 32 31 30 29 29 31 32 33 32 22 23 25 28 31 32 31
94 96 90 92 85 76 72 47 23 22 13 13 15 22 24 27 28 27 27 28 31 33 36 38 40 40 39 37 34 34 33 33 40 39 37 32 27 26 24 24 25 28 32
89 94 88 87 82 76 52 24 23 18 11 15 21 25 30 29 29 30 32 35 37 39 43 45 45 44 42 39 36 35 37 38 40 44 46 39 30 30 29 28 25 24 25
98 95 82 84 71 43 28 24 20 14 14 22 26 31 33 31 32 36 39 41 43 44 49 50 49 47 47 47 42 37 36 41 40 45 45 41 32 33 32 32 31 27 25
89 80 86 68 43 40 30 21 16 15 23 29 31 35 36 44 45 46 44 46 47 47 48 48 51 51 54 52 48 45 41 39 40 43 41 34 30 31 32 32 34 35 32
73 62 46 45 35 30 33 20 28 26 34 43 44 42 49 49 57 59 53 52 51 53 55 57 59 60 58 56 52 48 46 39 42 42 38 32 27 27 28 30 33 33 34
42 31 28 25 30 32 36 38 38 40 45 47 49 52 58 58 65 63 71 71 74 72 74 71 69 67 60 55 51 49 44 43 40 39 35 31 27 26 26 26 27 29 31
28 25 25 26 31 39 39 46 44 54 54 59 58 57 64 68 83 74 83 84 81 84 79 78 77 68 62 56 52 48 44 41 38 36 34 30 28 26 25 24 24 25 27
35 31 28 31 32 36 45 48 55 55 57 63 67 72 75 81 77 74 85 85 84 86 84 82 77 69 60 54 51 48 44 39 38 35 36 31 30 28 26 24 23 23 23
41 37 37 40 38 42 54 61 66 71 72 75 82 84 84 91 83 84 83 86 86 88 84 79 68 57 53 53 49 45 43 41 39 39 36 35 32 31 27 25 24 23 22
43 42 42 47 54 63 67 72 74 77 75 77 79 83 83 89 88 83 84 84 86 78 65 60 57 55 55 52 49 45 40 39 40 39 38 39 41 38 36 31 27 25 24
52 59 63 66 70 71 74 78 83 84 74 75 78 72 73 75 79 80 77 71 63 57 56 55 53 50 47 47 45 41 37 36 37 38 34 41 48 38 40 38 33 27 24
68 72 71 73 75 72 76 84 90 77 72 70 69 68 71 68 65 61 56 53 50 51 51 51 51 51 50 44 40 41 38 32 37 32 33 37 47 44 42 33 35 24 22
71 73 72 73 74 75 83 81 77 72 68 70 68 64 59 53 48 48 49 49 52 55 57 56 54 50 47 42 42 40 33 37 33 34 39 46 45 43 44 41 36 37 34
69 72 71 70 74 85 87 79 73 64 64 63 55 52 49 47 50 53 57 59 61 62 61 58 55 50 41 35 38 42 40 33 34 37 39 45 46 40 43 41 43 42 36
69 72 71 76 79 83 79 70 64 63 60 57 49 47 51 55 58 64 67 69 66 62 58 52 48 43 39 36 40 41 35 29 30 37 40 42 39 43 42 46 42 42 42
72 76 77 77 71 71 68 63 61 54 50 53 55 57 59 65 67 67 65 62 58 52 51 45 43 43 36 33 33 39 38 36 36 36 34 33 35 41 46 42 41 42 44
68 66 63 60 60 57 57 55 53 57 62 60 62 64 66 65 64 61 56 54 52 45 45 44 42 40 35 37 42 41 42 44 45 39 38 36 41 43 47 45 48 44 39
61 62 60 55 51 48 50 50 53 55 61 64 66 66 65 63 57 54 51 52 52 47 45 44 42 41 42 45 44 42 41 46 45 42 36 38 43 46 48 50 51 46 43
59 59 52 50 50 49 49 51 55 58 62 62 68 71 68 58 51 48 46 40 37 44 45 45 48 42 42 49 44 40 45 43 41 43 44 41 47 42 51 51 44 48 46

GFSSE_prec_cthk_024.txt.gz
RH
71 61 57 57 56 56 51 49 46 44 36 29 26 19 11 8 8 10 11 12 13 14 14 14 14 14 14 15 14 14 14 14 13 14 20 30 37 33 19 22 26 27 26
76 65 63 60 57 56 54 53 50 45 36 29 22 15 10 9 11 11 12 14 15 15 15 15 16 17 17 17 16 17 17 16 21 30 34 47 52 38 23 21 25 27 28
84 70 65 65 65 61 59 58 52 44 33 24 17 12 10 10 12 13 14 15 16 17 18 18 18 18 17 17 17 17 19 21 26 35 42 52 52 38 28 27 27 28 32
80 74 70 71 72 68 67 63 54 43 29 21 14 11 11 13 15 16 17 19 20 20 20 20 20 20 19 21 20 19 25 30 34 39 40 50 36 30 26 27 31 33 37
82 78 77 79 78 77 71 69 56 39 26 16 13 11 12 16 18 20 21 21 22 22 22 23 24 24 28 27 26 23 25 26 30 37 32 27 28 23 25 27 26 25 27
94 87 84 87 87 84 78 75 60 33 21 13 12 12 17 19 23 23 23 23 25 25 26 28 30 33 35 34 32 30 28 30 29 31 28 29 22 22 21 22 26 29 29
91 95 95 92 93 90 82 78 52 29 15 12 11 14 19 23 25 25 26 26 28 29 31 36 37 38 38 38 36 32 32 37 36 40 35 34 29 25 24 23 22 23 27
92 91 89 93 95 89 83 70 44 25 14 12 12 19 23 28 27 27 27 28 30 34 37 40 43 44 42 43 41 36 35 35 36 42 40 40 39 28 28 27 25 22 22
96 91 94 97 92 87 75 53 30 19 12 11 18 23 28 29 28 29 32 34 38 39 40 44 46 48 49 49 47 44 39 33 35 43 42 41 39 28 30 32 30 29 27
98 88 95 88 84 73 56 33 25 16 10 15 22 28 29 30 31 35 38 40 42 45 48 47 48 50 52 53 50 47 46 39 37 38 37 37 34 25 27 30 32 31 31
93 90 95 90 74 57 36 27 18 10 12 22 27 33 38 38 42 47 45 45 49 51 51 54 56 59 60 58 55 50 47 44 40 37 35 34 32 28 25 26 29 29 31
85 88 85 72 56 48 31 20 13 12 25 30 33 40 45 49 52 53 52 55 60 67 68 69 68 68 66 63 56 52 48 45 42 39 35 33 30 29 27 26 26 27 28
76 54 45 45 34 42 27 18 20 28 39 42 41 48 54 50 59 65 66 71 73 77 76 72 75 74 73 63 57 51 47 45 43 40 34 34 32 30 28 26 25 25 26
35 29 28 28 34 35 26 33 37 45 53 56 54 59 62 60 66 75 71 75 76 81 83 75 77 75 68 61 55 52 49 46 43 41 38 36 35 32 30 27 25 23 23
26 21 22 29 38 33 37 44 52 56 60 68 72 66 70 72 79 73 67 69 69 70 70 75 74 69 62 56 54 51 46 45 44 42 42 36 32 31 31 30 28 27 25
32 22 22 29 28 36 43 51 56 63 69 72 74 78 77 74 64 67 67 74 69 69 71 67 61 53 49 48 47 44 43 42 41 41 43 39 33 32 36 36 31 29 28
41 32 36 41 43 58 60 67 69 72 73 68 66 71 73 68 65 66 69 68 64 60 55 50 46 44 42 42 42 42 40 39 37 34 32 35 35 35 41 40 36 34 29
44 46 49 52 58 63 67 72 77 81 71 59 57 58 67 66 62 65 63 55 48 42 42 43 46 47 46 45 43 38 38 37 35 30 36 37 34 42 44 44 42 35 32
57 60 60 68 70 71 74 74 86 80 67 59 57 61 62 57 51 48 45 41 41 45 50 52 51 51 49 47 41 37 36 35 34 33 33 33 37 48 52 52 45 45 39
64 64 64 67 71 72 75 80 86 76 67 58 60 59 49 43 42 42 45 48 52 54 55 55 54 54 52 47 39 35 36 38 32 31 36 42 42 46 50 48 45 43 42
60 60 65 65 70 75 74 80 77 69 60 60 54 45 45 45 45 49 53 55 57 58 58 55 52 45 40 36 35 35 34 32 31 33 36 35 39 44 46 47 46 49 45
64 60 64 72 72 73 75 75 66 63 58 48 44 44 46 48 49 54 58 59 57 54 49 46 41 36 38 39 37 32 33 34 31 32 31 34 38 42 44 45 45 43 45
62 64 68 70 69 66 60 60 60 56 49 44 46 48 54 57 59 63 63 63 58 49 45 38 35 39 42 38 35 37 36 36 37 35 33 28 28 31 34 36 40 42 42
63 67 65 65 62 63 57 56 53 47 49 52 55 55 59 63 70 70 68 59 47 42 40 35 38 40 40 37 35 34 37 37 37 33 33 33 34 35 33 32 33 37 38
61 60 63 60 58 56 55 48 48 49 54 56 58 61 64 70 70 63 52 40 34 31 31 35 39 42 40 38 36 33 36 36 34 33 32 33 30 27 30 41 48 46 45
56 55 55 55 53 51 50 49 48 49 51 52 57 63 69 73 61 49 39 33 30 32 33 39 44 42 40 39 37 47 46 43 39 41 38 35 34 34 34 42 48 49 50

GFSSE_prec_cthk_030.txt.gz
RH
67 70 77 77 74 69 62 58 53 52 43 34 25 18 13 14 9 11 12 13 14 14 15 15 15 15 15 15 17 21 23 25 26 33 42 48 38 29 27 25 21 21 22
61 65 71 72 71 67 63 63 59 53 42 33 26 19 16 14 10 12 14 15 15 15 15 15 15 16 17 17 22 25 25 25 26 34 33 26 20 21 22 25 25 27 28
68 67 69 74 76 70 67 67 60 51 40 32 27 22 18 12 11 14 16 17 17 16 16 17 17 20 23 25 27 27 29 28 26 23 21 18 17 17 20 22 22 22 24
76 74 77 72 73 68 68 67 60 48 39 34 29 23 20 12 14 15 17 18 18 18 20 20 21 22 24 27 28 27 32 29 25 25 26 26 25 19 18 19 22 24 25
77 77 77 72 71 69 67 67 57 45 37 34 31 23 22 18 17 17 19 20 20 21 22 23 25 28 28 31 34 32 32 34 32 29 30 30 29 25 23 21 19 19 21
77 78 79 77 70 69 68 64 53 44 40 37 25 24 26 19 18 20 20 22 21 22 24 27 31 31 32 33 37 37 36 33 35 35 35 35 35 30 23 24 24 21 20
81 84 81 78 80 75 72 65 55 51 42 31 25 25 22 22 20 24 24 23 23 26 29 33 34 37 36 37 36 36 34 35 37 35 34 32 31 32 25 23 24 26 24
89 93 87 93 89 83 77 68 61 46 34 26 26 20 20 22 24 23 23 26 28 30 31 36 41 42 42 44 42 40 39 38 37 36 35 32 30 29 28 23 21 24 26
99 98 99 97 96 91 82 72 50 39 26 17 18 18 20 22 24 26 28 31 32 36 39 42 47 51 50 50 49 47 44 42 41 38 36 34 33 31 29 28 25 23 24
98 98 98 96 91 87 83 61 42 32 22 21 20 22 26 29 30 29 31 35 37 39 45 49 53 56 60 55 55 54 47 43 40 38 37 37 36 33 33 31 29 26 26
95 94 92 88 85 84 68 53 41 35 31 33 31 30 29 28 28 30 34 41 48 49 53 57 60 62 60 58 56 52 44 43 40 40 39 38 36 35 35 34 33 31 29
89 87 80 75 84 72 56 42 30 17 14 20 24 28 30 33 36 41 48 50 54 58 60 63 65 67 65 59 51 43 40 38 36 35 34 35 34 33 32 33 31 29 29
85 70 70 68 59 48 40 26 17 15 26 38 45 47 46 49 56 54 53 54 58 62 59 60 60 64 62 55 43 37 36 35 35 35 34 32 33 33 30 32 31 31 31
60 63 67 54 47 35 25 20 19 24 40 47 46 45 44 50 53 58 64 63 62 58 55 56 56 57 54 47 37 38 36 35 36 35 34 33 32 33 32 31 29 29 31
53 63 62 55 45 33 25 27 31 40 47 51 54 52 50 52 55 63 64 61 55 52 51 54 55 50 45 39 38 38 38 37 36 33 32 34 33 33 32 33 33 32 33
41 38 37 36 35 33 35 39 44 49 52 57 58 56 54 55 57 61 59 53 52 53 51 52 45 38 34 36 37 38 37 34 32 33 33 31 31 32 30 32 33 34 36
37 38 42 45 45 46 50 52 52 55 69 66 59 57 53 49 51 56 53 53 57 51 48 37 32 35 39 40 39 39 37 35 34 31 31 30 31 30 32 34 37 39 39
35 41 46 47 49 52 58 57 60 65 68 70 64 53 47 45 48 50 55 55 47 40 32 34 38 41 43 45 43 39 36 29 29 29 29 29 29 30 36 42 42 40 38
37 46 53 50 49 51 60 63 64 66 65 64 57 51 46 42 45 48 48 43 36 34 39 44 47 49 50 46 39 33 29 29 33 34 31 29 30 33 36 38 40 40 40
40 41 46 44 52 56 59 61 58 57 54 55 51 46 41 41 40 38 38 39 38 40 47 53 56 55 48 37 31 29 30 31 33 32 29 27 29 31 33 36 37 36 35
47 48 47 51 62 61 59 54 55 52 54 52 47 41 38 37 38 38 39 41 48 55 56 55 51 46 38 34 32 33 32 31 31 31 27 27 27 30 33 35 35 34 35
46 49 53 61 65 59 55 56 56 58 61 51 43 41 40 39 40 42 48 54 60 63 61 49 49 43 40 38 38 37 38 37 36 33 26 26 29 29 27 29 31 34 35
43 47 53 66 68 60 59 60 60 63 57 51 45 43 42 44 48 52 56 60 58 56 55 58 47 44 41 38 40 42 43 42 39 36 35 37 38 37 37 33 31 32 32
43 56 63 65 63 60 66 63 60 58 51 48 46 46 47 50 53 55 59 65 60 53 46 43 43 44 40 42 45 48 49 47 44 42 42 45 43 44 39 37 29 26 24
46 52 61 59 60 62 59 60 60 57 54 51 52 52 53 55 58 59 61 65 57 45 39 41 49 48 43 44 48 51 51 49 50 51 48 50 51 52 47 41 39 35 36
58 55 63 63 56 60 60 60 59 57 56 54 57 57 59 64 65 70 67 62 54 45 45 47 44 46 45 47 53 56 53 51 56 57 56 52 53 58 51 49 44 38 37

GFSSE_prec_cthk_033.txt.gz
RH
62 62 68 70 69 63 59 58 56 52 47 39 32 26 21 20 17 17 11 12 13 13 14 14 14 14 18 19 20 23 25 26 34 35 22 18 20 20 22 25 26 26 25
63 64 67 68 64 60 57 59 58 53 45 40 32 25 23 19 20 17 13 13 14 15 15 16 17 18 19 21 22 26 25 23 22 19 20 18 16 17 18 19 19 21 25
69 71 71 70 66 58 61 62 60 52 47 41 34 27 25 22 22 17 13 15 15 16 18 20 21 21 22 23 26 28 27 27 25 23 23 23 20 18 17 18 21 21 20
76 77 75 74 67 68 62 66 61 51 44 41 32 28 30 26 23 15 15 17 19 19 20 21 21 22 25 26 28 31 30 31 30 28 28 27 25 20 20 19 18 18 19
82 82 77 76 64 65 63 63 56 47 45 37 32 33 33 25 21 19 19 21 21 20 21 22 25 27 29 29 31 34 34 34 32 33 33 30 28 25 21 22 21 20 18
78 79 77 73 70 76 72 61 51 46 39 38 34 38 29 26 26 24 27 22 22 24 25 28 29 27 28 30 31 32 34 36 35 32 31 29 27 27 24 22 23 24 23
83 87 84 80 77 78 70 58 51 47 40 39 41 34 30 32 28 26 25 25 25 28 30 32 33 36 35 34 35 37 37 37 36 33 30 28 26 25 25 24 22 22 24
86 94 91 94 93 85 69 57 52 44 47 46 36 32 32 28 29 26 25 27 29 31 33 35 39 41 42 44 43 44 42 40 38 35 33 31 30 28 27 27 25 23 23
88 93 97 98 96 80 65 61 57 56 50 41 34 27 28 29 28 28 28 30 35 37 37 41 44 49 51 55 52 48 43 42 38 35 34 32 32 32 31 30 30 28 26
95 98 99 98 91 79 73 70 65 47 31 27 21 22 26 27 28 30 33 35 37 40 44 51 55 56 59 59 58 52 42 37 35 34 31 32 32 33 32 31 30 27 28
95 98 97 95 87 83 76 62 48 34 27 29 25 29 35 35 36 34 32 35 40 49 55 55 58 62 64 64 59 49 42 36 32 30 28 26 26 26 27 27 27 26 25
88 93 94 93 89 81 67 58 45 37 34 31 31 33 34 33 32 35 38 45 48 53 54 57 55 55 56 56 50 38 34 30 29 29 28 29 29 28 26 25 25 23 23
90 77 82 83 83 70 54 41 30 22 22 30 40 46 46 48 50 54 56 52 58 59 56 53 51 53 50 46 39 33 32 31 31 31 30 31 28 28 28 31 28 27 26
83 70 71 66 54 47 45 35 29 30 36 44 47 48 47 46 49 54 57 64 64 56 52 49 49 50 46 42 38 37 34 33 32 30 30 28 27 29 31 31 30 29 30
63 59 57 51 44 35 32 33 33 41 47 50 54 53 49 46 47 53 62 61 56 49 53 52 51 47 44 41 39 38 38 36 32 28 27 29 30 29 28 31 30 31 32
48 55 53 50 44 43 41 41 39 46 49 56 55 55 51 48 50 56 58 57 53 51 55 55 49 41 38 38 40 40 38 31 27 28 29 28 26 27 27 30 32 34 37
36 38 37 36 39 40 41 44 47 54 56 60 62 62 55 50 50 48 50 52 52 55 59 50 35 35 41 44 43 41 34 28 26 25 24 24 25 25 26 31 34 37 38
37 38 43 44 45 48 54 55 58 63 70 71 74 67 57 53 48 46 47 50 51 56 46 35 35 42 45 46 42 38 36 31 28 28 28 28 27 27 29 33 34 34 36
42 46 49 47 49 53 59 59 62 67 71 71 67 55 53 45 44 44 46 49 52 41 37 37 42 45 47 43 38 39 35 35 34 32 32 32 29 31 36 35 36 37 36
42 48 47 51 59 63 62 58 61 62 62 60 51 50 48 41 42 44 46 44 40 38 39 45 47 45 44 40 42 42 40 35 34 34 35 34 33 33 33 34 36 37 37
41 41 42 52 61 63 61 59 64 61 60 56 52 49 45 42 40 40 39 40 40 40 45 49 50 47 46 49 52 41 41 39 40 40 39 39 35 35 33 31 33 33 33
45 44 46 53 56 61 59 59 62 60 59 58 55 51 44 40 37 38 41 44 45 49 54 54 49 45 46 45 45 50 51 47 46 46 46 43 40 38 38 38 38 37 36
47 45 51 59 67 66 59 63 63 64 65 59 55 52 45 42 41 44 47 48 51 52 57 56 53 45 45 50 50 51 52 49 51 54 54 53 51 52 54 53 50 46 42
51 52 60 68 71 67 61 65 66 69 69 59 56 55 50 49 50 52 54 55 58 60 67 64 60 50 48 48 49 51 55 59 60 56 57 58 61 62 59 59 56 55 50
60 66 59 72 79 71 63 65 71 66 62 61 57 53 53 56 56 61 62 64 64 76 73 58 56 48 49 56 58 59 62 61 59 60 58 63 66 66 66 64 65 62 61
63 66 66 73 69 72 64 65 64 63 63 61 57 56 63 65 67 69 65 69 74 85 78 59 70 60 53 57 57 61 62 62 63 65 63 66 67 66 66 62 71 77 76

GFSSE_prec_cthk_036.txt.gz
RH
66 73 70 65 61 56 55 54 52 47 45 42 36 32 28 24 20 20 19 13 12 13 13 13 14 15 17 20 21 23 24 22 20 20 17 15 15 17 17 17 19 22 24
69 72 71 69 65 57 51 50 48 51 46 40 35 33 30 26 24 23 20 14 13 14 15 15 17 18 20 23 22 22 21 22 23 22 20 17 16 15 15 18 19 19 19
71 72 73 72 66 58 55 55 47 50 51 39 39 44 29 28 24 24 22 16 17 18 18 18 20 21 25 28 28 28 28 28 27 27 25 20 18 18 18 17 16 18 19
74 75 80 80 74 64 60 58 52 45 49 44 47 36 29 29 27 27 24 19 20 20 20 21 22 24 27 29 29 29 30 31 31 29 28 25 23 19 20 20 19 18 17
78 79 83 81 77 67 60 58 49 44 47 43 40 36 29 32 34 28 24 21 20 22 22 24 26 27 28 28 27 29 30 30 29 28 25 25 24 24 21 20 21 21 21
78 79 83 84 77 72 71 63 49 58 45 42 40 33 35 40 32 30 31 23 23 26 26 28 28 32 32 30 32 34 33 33 32 31 28 27 25 23 22 21 20 21 23
82 88 93 90 84 80 77 61 65 47 41 43 41 39 43 35 32 34 33 29 32 29 30 32 36 36 35 36 37 38 38 38 36 34 31 28 27 26 24 25 24 23 23
84 88 95 95 92 86 80 72 52 42 46 45 44 46 39 40 41 34 30 28 32 34 34 38 43 41 42 45 46 45 41 39 36 34 31 29 29 28 28 28 27 27 26
85 92 96 99 96 90 75 55 47 47 49 50 47 44 45 41 36 30 30 32 37 39 41 45 47 49 50 53 53 51 43 38 35 31 30 30 26 25 24 24 24 25 25
89 93 95 98 95 82 65 54 53 55 60 52 44 38 37 33 31 30 32 36 39 42 45 53 52 51 56 58 60 53 41 34 28 27 26 25 25 22 22 22 21 21 20
96 98 99 95 86 75 70 70 68 63 48 35 34 36 33 34 35 36 36 39 40 47 54 56 58 55 51 49 49 44 33 29 28 28 28 28 27 28 25 25 24 22 21
83 88 95 93 86 82 80 76 65 47 32 35 38 40 40 40 39 40 41 43 48 55 59 57 56 50 45 44 42 35 32 30 29 29 29 27 28 30 29 27 26 26 25
78 84 89 92 92 87 77 62 47 38 33 31 33 38 39 38 40 46 53 60 62 63 59 50 45 42 44 39 37 34 33 32 33 32 30 29 27 29 29 26 28 29 28
73 80 87 89 83 70 55 43 32 29 35 40 48 50 49 48 49 51 54 63 67 65 57 47 48 44 42 38 37 34 34 36 36 33 28 26 26 29 33 29 30 32 30
70 68 68 65 60 50 40 39 37 39 45 50 58 57 51 48 48 49 53 64 64 57 54 51 49 46 41 38 38 36 36 37 35 32 26 24 25 25 25 29 32 33 30
63 60 59 58 51 44 41 42 41 44 49 53 55 56 53 49 46 48 51 57 56 54 54 54 52 44 36 36 39 40 39 36 31 28 25 24 23 24 25 29 33 35 36
42 45 46 48 47 49 48 46 45 49 55 57 57 57 60 54 54 53 51 53 53 52 54 54 43 35 36 40 41 40 34 28 29 29 28 29 28 25 24 28 34 36 37
42 45 47 48 50 52 48 46 46 53 57 60 64 69 67 58 55 52 50 53 51 53 54 40 36 38 40 42 41 33 31 34 37 36 35 33 30 29 32 36 37 36 36
47 52 50 49 48 50 49 52 53 55 60 61 74 70 59 52 52 51 49 52 54 52 39 38 40 43 43 42 38 35 36 39 38 39 35 35 34 35 37 41 41 40 40
51 51 50 50 54 55 54 54 57 59 59 59 66 54 48 48 50 50 51 53 50 41 40 42 44 42 42 39 38 37 38 38 41 42 44 46 43 39 37 37 38 37 36
43 41 46 53 62 62 60 56 56 58 63 59 60 56 51 54 50 50 51 47 41 41 42 42 44 45 46 45 42 38 40 45 47 46 45 44 44 45 44 42 40 39 39
37 38 44 53 57 62 60 53 58 58 61 62 61 58 59 56 50 48 46 42 42 42 43 46 47 51 54 54 53 51 50 50 56 57 55 56 56 53 48 48 49 49 49
41 42 45 51 58 62 59 53 56 60 64 66 68 65 59 56 49 46 44 44 45 48 48 50 58 64 68 69 54 63 59 60 56 57 58 58 57 56 58 60 63 62 59
48 49 50 55 62 63 60 56 56 62 67 74 74 63 59 56 52 49 52 54 55 59 57 63 66 74 81 69 59 57 59 60 58 53 55 60 59 61 62 62 63 65 64
51 52 59 59 62 71 70 66 63 73 78 79 75 75 64 62 60 64 65 62 67 72 71 87 87 83 72 64 60 58 60 59 60 59 58 59 56 54 57 61 67 67 64
57 56 58 73 72 72 74 71 62 62 69 74 73 74 72 75 73 75 73 72 76 85 90 86 89 81 65 60 58 58 59 62 63 62 57 52 50 47 48 52 59 64 69

GFSSE_prec_cthk_039.txt.gz
RH
68 68 66 64 62 58 60 60 60 54 47 43 40 33 30 28 26 20 21 18 13 13 14 16 18 19 19 22 22 21 20 20 19 17 16 14 13 14 15 15 16 19 22
74 73 73 69 63 59 61 61 55 50 42 39 39 31 32 34 27 24 22 20 15 15 17 19 20 20 19 21 22 23 24 25 23 22 19 17 16 16 15 16 17 17 18
77 77 76 72 68 64 63 59 53 46 39 36 38 38 43 33 28 25 24 22 17 17 19 20 22 23 23 25 26 27 27 26 26 26 24 27 19 18 18 18 17 17 17
80 80 82 78 74 69 65 59 51 46 40 36 37 39 40 32 27 28 29 26 21 20 21 23 23 25 25 26 26 25 25 25 24 22 23 27 26 21 19 20 20 19 18
81 81 79 80 77 70 65 58 49 39 40 42 39 40 34 30 31 35 31 25 23 23 23 26 27 28 28 30 31 30 29 29 28 27 25 25 28 23 22 21 21 20 21
77 81 83 78 76 71 66 58 46 38 46 40 43 41 36 34 39 38 30 28 28 25 27 32 32 31 34 35 34 33 34 35 32 31 30 28 27 25 24 24 23 22 21
83 88 85 87 81 77 71 59 48 49 47 47 44 38 36 39 42 36 34 34 32 32 33 35 35 37 39 42 40 39 39 37 34 33 33 31 27 26 26 25 25 26 25
90 88 95 94 91 83 72 60 53 58 54 45 40 41 44 46 37 38 38 38 39 39 39 41 42 41 48 49 47 46 44 38 36 33 29 29 24 22 21 20 20 19 20
89 90 92 96 97 82 71 64 62 59 44 45 44 48 48 42 44 39 40 41 40 39 42 45 47 50 49 54 54 52 43 35 27 25 24 28 21 20 20 20 19 18 17
87 93 94 97 96 87 74 70 62 48 46 48 54 57 51 43 42 40 40 40 37 42 47 50 53 55 55 52 47 42 34 26 24 24 29 28 26 26 23 22 21 20 19
80 88 93 97 93 84 68 60 51 48 56 61 58 48 43 38 37 37 38 40 42 47 54 57 55 55 50 43 41 34 28 25 26 27 28 27 26 27 27 25 22 21 20
88 90 94 94 94 83 72 59 58 66 69 54 43 40 37 39 41 39 42 44 50 59 58 54 51 45 40 38 34 30 29 29 31 31 31 29 26 27 27 24 23 22 22
89 89 90 89 91 78 74 77 77 69 50 36 39 42 43 44 44 42 43 49 60 65 61 58 51 44 40 35 32 31 31 31 34 33 31 28 26 27 25 23 22 24 25
83 88 89 89 90 90 86 81 61 50 34 35 37 43 49 49 50 53 54 59 66 69 68 59 51 46 42 36 34 32 33 34 35 32 27 25 25 26 26 24 25 26 28
81 88 90 90 86 83 71 51 36 30 33 42 46 51 51 51 50 53 51 55 66 66 60 55 52 49 40 36 34 35 35 35 31 27 26 27 27 27 25 28 32 30 29
71 68 71 77 71 61 55 49 42 41 47 52 58 54 53 52 49 48 50 52 55 54 54 50 53 45 36 35 36 37 36 32 30 30 30 29 30 28 25 28 34 37 34
61 55 53 52 50 51 44 41 40 45 49 53 56 55 57 55 52 55 57 55 51 51 52 52 49 36 35 38 40 37 34 33 32 31 30 31 31 30 28 31 37 40 42
52 55 53 55 51 48 46 47 46 48 52 57 61 64 64 66 60 57 52 51 50 51 52 52 36 36 38 40 38 37 35 31 28 29 31 33 34 36 39 42 46 45 43
49 51 55 57 58 58 56 51 48 50 55 60 63 65 72 75 62 55 50 49 49 51 53 40 35 39 42 42 42 40 35 33 35 37 38 38 37 37 38 39 40 42 44
52 53 57 54 56 58 53 47 47 48 55 57 62 68 67 62 54 50 51 50 50 51 44 37 38 42 44 43 40 39 44 43 41 44 45 44 43 45 45 44 43 42 41
51 54 58 61 57 60 56 51 55 54 55 63 70 68 58 54 52 52 49 49 50 47 40 42 44 46 48 49 51 55 54 54 45 46 49 50 50 48 50 49 49 50 50
43 46 53 59 62 66 63 60 58 59 61 68 66 65 61 58 55 54 50 49 50 46 49 52 55 56 53 59 63 65 63 61 50 52 53 55 52 52 52 53 53 53 52
39 40 46 52 56 62 65 63 59 61 64 66 68 69 70 68 58 56 55 54 52 57 57 58 62 66 69 70 70 69 64 56 53 56 55 55 55 52 50 50 50 50 48
39 40 42 47 53 61 67 69 62 59 62 67 72 78 78 71 70 68 66 64 65 65 63 64 72 79 85 90 82 74 62 58 57 58 56 57 51 48 47 48 48 48 46
45 47 49 53 60 65 68 71 73 69 70 77 78 76 74 74 74 73 73 72 71 71 71 77 84 92 95 93 71 61 56 57 57 57 54 54 51 51 49 48 47 46 41
56 53 54 58 70 76 84 82 77 71 63 63 67 72 75 78 81 79 81 79 81 83 81 86 90 95 83 72 62 58 62 62 59 59 58 60 58 53 46 39 36 35 36

GFSSE_prec_cthk_042.txt.gz
RH
69 65 62 63 66 67 68 68 66 62 57 52 42 36 30 31 26 21 21 20 18 18 18 17 17 20 21 20 19 19 20 20 18 17 17 15 15 15 16 17 24 25 24
77 72 69 68 70 69 71 69 66 59 50 40 34 30 28 35 31 25 23 22 21 22 21 19 19 19 20 22 23 24 23 22 21 22 25 21 18 17 15 15 16 17 20
80 75 72 70 69 69 70 71 65 55 44 35 33 29 39 41 31 29 25 25 25 24 23 23 23 22 23 24 24 22 21 19 20 23 30 31 23 20 20 18 18 17 17
82 81 79 71 68 69 69 67 60 51 37 34 34 34 36 35 30 28 28 29 29 27 27 25 24 25 25 25 24 25 25 24 25 31 34 36 29 21 20 20 20 20 20
86 83 80 74 72 71 68 63 53 44 35 32 36 37 42 35 35 32 36 34 31 30 30 30 30 30 30 30 30 30 29 29 32 39 38 39 34 26 24 26 27 21 21
80 83 78 75 74 69 63 58 49 42 35 33 39 42 43 37 32 35 41 37 34 32 31 32 31 34 33 33 34 35 32 33 41 41 42 35 33 25 24 24 23 24 24
76 79 80 79 79 73 68 57 52 43 40 39 44 44 43 38 37 40 41 36 37 36 36 35 37 37 39 39 43 39 38 38 42 43 41 33 28 22 21 19 18 18 18
84 85 85 84 80 77 79 62 53 46 45 46 49 47 42 42 41 46 39 41 41 42 40 40 43 44 45 47 46 43 39 38 35 32 33 28 19 19 18 18 17 16 16
91 94 91 91 88 87 71 64 59 51 53 51 50 46 46 47 45 41 43 43 45 46 48 44 47 50 52 52 50 38 30 25 32 33 34 34 23 21 20 20 19 18 16
94 99 91 93 94 83 74 64 55 57 58 55 49 50 52 52 46 44 47 46 44 47 46 49 54 56 54 52 42 33 26 27 34 35 38 32 27 25 23 21 20 19 17
87 87 96 98 96 91 84 65 60 61 57 53 54 61 60 52 48 49 47 43 41 48 53 55 54 51 50 44 34 28 29 33 35 36 38 29 30 28 23 21 20 19 19
88 88 87 89 92 89 76 73 71 67 55 57 66 65 53 51 50 45 42 44 48 56 62 60 57 51 49 40 31 30 31 31 35 34 33 27 27 31 28 26 24 22 22
87 88 91 92 94 92 88 80 70 63 64 70 62 50 50 47 46 48 44 47 52 64 67 67 66 60 51 38 33 32 31 32 33 32 31 26 26 28 31 30 28 25 25
92 94 93 93 95 92 88 84 77 78 79 60 50 50 47 50 47 48 52 58 63 65 72 71 67 58 48 36 34 33 34 35 34 32 31 25 25 27 31 32 29 29 29
86 92 95 91 89 86 88 88 85 77 63 45 49 46 50 51 51 55 55 57 59 62 68 63 56 53 44 34 33 35 37 33 29 30 30 25 22 23 26 35 37 36 35
88 92 95 93 93 91 87 81 68 59 44 45 50 50 54 53 52 51 50 51 54 57 56 52 52 49 37 33 35 36 34 31 29 25 27 32 27 27 28 30 38 43 39
81 91 92 88 84 78 67 60 43 43 47 52 56 57 56 52 53 50 52 56 57 51 49 49 49 45 33 35 36 35 34 33 29 28 34 37 37 35 30 30 34 39 43
63 65 66 70 74 65 57 50 50 52 56 63 60 54 59 60 58 57 60 55 52 49 48 49 49 36 34 37 38 37 37 35 35 39 43 42 40 44 47 40 42 41 43
58 55 51 47 50 55 49 45 46 45 49 55 57 60 65 68 72 67 61 53 48 47 46 48 45 35 35 40 42 43 46 47 48 50 49 50 44 44 47 44 38 38 41
63 61 59 56 63 66 61 55 56 54 58 62 65 67 68 72 74 62 55 49 47 47 46 47 40 38 43 47 47 53 55 55 56 53 49 47 45 44 44 42 41 42 41
60 61 61 61 59 65 63 57 51 51 57 60 59 63 67 69 57 54 55 51 48 47 47 49 47 49 51 52 60 62 63 64 64 58 56 50 49 46 43 42 44 43 43
58 61 66 67 69 67 70 66 59 57 55 59 64 68 66 59 62 59 57 54 53 55 59 56 55 55 56 63 70 75 78 72 65 66 56 52 52 48 48 46 44 45 49
50 52 57 64 68 72 78 70 66 62 66 65 68 74 76 72 76 74 70 69 69 68 66 62 61 63 65 72 79 85 86 82 74 59 56 58 55 54 51 51 51 47 42
41 45 47 52 59 63 69 77 73 68 65 67 67 73 76 82 84 77 75 77 77 73 68 67 69 73 78 83 85 84 75 71 63 62 59 59 56 58 58 56 50 46 41
40 44 49 53 59 64 66 69 73 74 73 74 74 79 80 78 79 83 84 84 81 78 76 76 79 82 83 87 77 75 66 62 64 65 64 61 61 60 57 54 46 39 33
48 50 53 55 59 60 72 71 80 84 84 79 71 67 68 71 76 82 90 89 88 82 85 85 85 84 85 80 79 73 72 69 67 64 63 64 63 62 59 50 40 32 30

GFSSE_prec_cthk_045.txt.gz
RH
58 54 55 61 64 65 66 68 66 63 59 53 43 38 29 30 31 25 20 20 18 20 24 25 22 20 18 18 19 19 19 18 20 19 17 16 15 15 18 20 23 24 24
65 60 58 64 65 68 69 70 69 66 60 49 36 31 26 32 34 27 23 23 24 24 26 26 22 21 22 22 21 20 19 21 25 26 26 21 18 18 16 16 16 16 22
66 69 66 71 72 73 72 72 71 68 58 43 35 29 29 34 35 29 29 29 30 28 26 24 25 23 23 21 20 19 21 25 31 34 36 30 23 18 19 19 19 18 18
78 77 75 79 79 74 73 73 72 66 54 36 30 34 32 34 32 30 31 34 33 31 29 27 26 25 25 25 25 25 27 30 36 43 41 37 29 22 23 21 20 21 21
92 92 82 83 82 77 75 74 71 59 47 34 30 35 38 36 31 32 30 35 38 37 34 31 28 29 28 29 28 28 34 38 43 40 36 36 33 25 24 25 23 21 21
79 94 89 82 82 78 74 72 66 53 41 35 34 37 43 37 37 37 35 41 46 40 39 36 33 31 32 32 31 32 38 42 47 46 40 31 25 21 20 19 18 18 17
76 85 82 81 78 73 69 66 57 50 39 35 39 42 47 41 40 38 39 44 47 43 42 40 38 36 38 39 36 35 38 41 44 43 34 25 18 17 16 16 15 15 14
86 78 81 79 75 70 66 59 58 51 43 42 44 46 53 46 41 41 45 48 42 42 43 44 44 44 44 44 38 34 33 32 35 38 34 28 20 18 17 16 16 15 14
86 89 89 95 80 76 66 60 53 50 47 46 47 54 49 44 44 46 50 44 46 47 46 49 50 48 48 46 39 29 28 31 39 39 38 29 22 20 19 17 17 16 15
90 88 88 97 92 81 70 62 62 52 48 52 51 58 51 51 51 56 48 47 49 51 51 50 46 50 49 40 32 27 30 32 37 39 35 23 23 23 21 20 19 18 17
88 87 82 82 96 86 82 73 61 59 57 56 62 59 54 58 61 57 51 49 51 52 48 48 51 50 43 35 30 30 31 32 35 36 33 23 27 29 29 26 25 24 23
85 87 86 85 91 86 81 75 75 66 61 67 66 64 66 64 64 55 51 49 49 50 54 57 56 54 49 41 32 32 32 32 32 33 32 24 25 28 28 27 28 25 24
88 85 87 90 91 84 81 87 77 70 77 72 72 71 71 65 60 52 48 46 50 54 57 65 64 64 56 43 32 32 32 34 34 32 31 25 22 25 26 27 27 27 26
84 87 85 92 96 94 90 92 81 78 73 74 82 80 67 65 56 55 52 54 56 62 67 71 72 62 51 36 31 32 33 33 31 30 25 23 20 22 28 29 32 33 33
89 90 92 97 95 92 94 94 90 79 76 85 82 73 65 64 60 60 62 67 69 68 64 67 62 51 47 33 34 34 33 32 30 28 28 27 25 25 26 29 36 37 35
84 90 97 95 97 97 96 91 80 76 84 85 70 64 62 64 62 65 63 64 58 57 56 53 49 50 44 34 34 35 33 31 31 28 32 34 34 32 32 31 37 42 42
86 90 94 96 97 95 89 86 87 88 80 67 62 59 57 63 64 65 60 57 58 59 53 51 51 48 44 34 35 35 35 37 37 36 38 40 41 42 36 32 36 45 47
90 93 95 92 86 80 81 81 82 79 68 54 54 61 62 63 60 60 60 60 60 55 53 48 50 49 45 37 37 39 42 43 45 47 47 45 46 46 45 42 36 38 38
69 76 83 85 90 90 76 66 62 60 54 60 68 68 64 62 64 66 71 64 59 53 50 50 50 49 44 37 43 44 46 49 52 52 54 52 53 54 51 44 40 36 37
53 53 56 64 76 70 62 58 54 51 56 70 73 71 70 65 64 74 78 62 55 53 50 50 48 47 46 46 47 46 51 55 58 60 59 59 56 51 47 45 43 43 39
60 59 58 57 64 70 64 59 56 55 57 65 69 71 72 72 71 75 66 59 58 56 53 51 57 57 53 53 54 58 60 60 63 64 61 62 59 56 49 44 46 46 42
58 61 60 62 66 73 71 62 55 51 50 53 58 66 68 70 71 63 64 64 66 66 63 60 64 66 58 58 63 68 75 73 68 59 60 53 52 54 50 50 48 47 48
57 60 62 64 64 65 72 70 66 57 57 55 63 67 67 71 71 71 79 80 79 79 75 71 68 68 64 67 73 79 77 77 70 63 58 55 56 54 57 57 55 52 51
52 54 57 61 62 62 65 71 72 68 71 69 65 66 70 80 82 82 87 86 83 86 83 80 78 72 69 75 77 82 80 74 70 70 66 61 59 59 61 61 62 59 57
46 45 46 51 56 61 62 62 72 75 77 76 72 72 72 78 86 83 80 81 85 88 90 87 80 76 80 81 84 86 76 73 72 77 74 72 70 66 67 65 66 62 59
39 40 46 50 53 57 67 66 70 74 74 84 90 92 77 76 76 76 76 79 85 91 93 91 83 81 84 81 84 90 77 71 76 79 73 73 76 79 77 73 69 67 61

GFSSE_prec_cthk_048.txt.gz
RH
72 56 55 58 60 62 60 57 58 56 54 50 38 29 26 27 29 24 22 20 23 20 21 20 18 18 18 19 19 20 20 21 22 19 17 16 16 16 16 16 18 21 23
97 71 64 65 68 69 67 64 64 62 58 50 35 26 27 30 30 27 24 24 29 24 24 21 22 22 20 18 18 21 23 26 28 25 20 17 17 18 17 18 17 19 22
95 93 74 73 73 70 71 69 70 66 61 46 34 27 32 31 32 28 29 31 33 27 26 27 24 22 20 19 20 23 28 32 36 36 29 25 26 22 19 18 18 18 19
76 92 86 80 76 75 76 76 76 71 60 43 33 32 33 30 31 29 31 33 32 31 30 30 27 27 25 24 25 28 31 37 41 40 33 29 25 26 24 21 22 20 19
73 81 90 86 84 82 82 81 79 73 56 40 33 34 33 34 35 31 31 31 32 35 35 35 33 31 26 26 29 33 38 40 38 30 30 26 23 21 20 18 17 17 17
63 65 71 91 93 92 87 84 83 70 53 39 33 35 38 37 37 36 36 35 38 43 43 39 36 33 31 30 34 38 43 46 39 31 24 20 17 16 15 14 13 13 13
61 62 67 76 98 98 89 88 83 67 45 36 36 38 40 43 40 40 40 41 43 48 44 43 42 39 38 32 35 38 42 44 34 25 22 17 16 15 14 13 13 12 12
65 73 76 74 87 92 94 86 73 57 41 41 37 39 45 48 44 44 44 45 50 50 45 46 46 45 41 33 32 35 36 37 37 29 24 18 17 16 15 14 14 13 12
76 81 85 89 92 94 96 79 65 51 45 45 44 45 51 52 48 50 46 50 53 48 50 50 48 48 42 33 32 33 33 35 39 33 26 17 18 18 18 18 16 15 15
85 83 82 88 96 98 91 75 60 53 51 56 48 51 55 53 52 50 48 55 52 53 52 49 48 42 37 32 30 29 31 32 37 31 28 20 20 22 20 20 19 18 18
84 88 92 92 88 81 87 79 62 58 52 51 55 55 62 58 55 53 62 60 57 56 54 52 47 50 41 29 30 28 28 29 29 28 29 23 22 24 21 21 20 19 20
83 90 91 90 91 83 80 80 67 64 63 62 65 66 67 62 63 66 62 59 57 56 51 51 54 54 50 39 32 29 26 29 29 28 28 24 18 23 24 24 24 23 25
78 81 88 90 88 85 85 85 84 77 70 74 72 72 69 70 73 65 59 54 56 50 52 54 60 61 57 46 32 28 29 31 30 27 24 21 18 23 27 28 28 28 28
80 87 91 90 89 85 87 91 88 85 80 78 83 80 82 77 70 64 56 52 51 53 55 65 69 67 57 41 28 28 30 29 27 25 24 25 26 27 28 33 33 35 32
82 85 87 87 87 87 86 89 95 83 81 86 83 87 81 75 71 63 60 58 56 63 66 66 63 62 47 36 29 29 29 28 28 29 31 33 34 31 29 33 36 38 38
87 86 84 90 87 86 96 98 95 87 85 86 86 80 80 76 70 69 66 67 70 65 63 59 53 44 45 37 29 30 30 32 37 35 37 40 40 38 33 33 39 45 43
82 88 89 92 95 97 92 94 93 90 90 85 82 81 80 75 67 65 66 66 59 58 59 52 48 45 44 40 31 30 34 39 42 43 43 43 45 44 43 42 35 45 47
85 83 84 93 97 95 96 96 92 87 77 79 81 80 70 67 66 68 64 59 58 58 56 51 49 47 43 40 34 34 39 44 46 47 49 51 50 47 47 49 46 41 40
86 89 92 90 88 89 89 90 84 80 80 75 63 59 61 61 64 61 64 64 62 60 53 50 49 47 44 44 42 43 44 48 49 52 55 53 52 49 45 45 46 43 38
64 74 80 76 71 67 72 72 71 70 66 61 63 63 67 63 63 68 72 81 64 56 53 51 50 49 52 55 55 49 48 53 57 60 59 53 50 49 46 42 41 40 41
46 53 59 68 71 70 61 61 63 58 59 59 60 60 63 63 61 61 72 79 63 54 54 56 55 56 62 64 62 56 61 61 65 64 61 56 53 47 47 48 47 44 45
48 47 50 57 67 71 70 58 51 46 45 46 56 64 73 77 68 62 66 60 59 63 68 67 69 71 72 69 65 64 66 67 64 65 60 54 52 53 52 50 49 52 52
53 51 52 53 55 59 60 52 60 55 51 47 50 55 59 64 71 67 63 65 71 77 79 81 82 81 80 77 72 72 73 72 69 65 66 63 59 56 59 56 57 58 58
48 50 50 52 54 54 57 63 59 65 59 58 56 64 61 63 72 77 82 81 84 86 86 83 85 88 88 80 80 82 81 77 74 76 75 68 61 63 62 61 67 66 66
45 45 46 47 47 51 53 67 70 71 61 65 72 72 63 68 72 80 84 84 83 80 88 91 92 91 93 87 83 86 84 83 84 81 76 79 70 71 71 70 69 69 67
46 43 40 43 48 54 58 61 69 83 76 81 86 82 84 87 82 82 84 83 79 82 86 91 91 91 92 92 89 90 88 84 83 83 78 75 77 79 84 87 78 74 71